Lovelock, NV

4:58 AM PST on December 10, 2016 (GMT -0800)
Derby

Weather History for KLOL - November, 2012

Change the Weather History Date:

Wednesday, November 7, 2012

  Actual Average Record
Temperature  
Mean Temperature 49 °F -  
Max Temperature 73 °F 58 °F 80 °F (1958)
Min Temperature 25 °F 28 °F 7 °F (1971)
Degree Days  
Heating Degree Days 16    
Moisture  
Dew Point 22 °F    
Average Humidity 41    
Maximum Humidity 75    
Minimum Humidity 15    
Precipitation  
Precipitation 0.00 in - - ()
Sea Level Pressure  
Sea Level Pressure 29.99 in    
Wind  
Wind Speed 3 mph (SSW)    
Max Wind Speed 12 mph    
Max Gust Speed -    
Visibility 10 miles    
Events      
Averages and records for this station are not official NWS values.
T = Trace of Precipitation, MM = Missing Value Source: NWS Daily Summary

Daily Weather History Graph

Daily Weather History Graph

Search for Another Location

Airport or City:

Trip Planner

Search our weather history database for the weather conditions in past years. The results will help you decide how hot, cold, wet, or windy it might be!

Date:

Astronomy

Nov. 07, 2012 Rise Set
Actual Time 6:31 AM PST 4:44 PM PST
Civil Twilight 6:02 AM PST 5:13 PM PST
Nautical Twilight 5:30 AM PST 5:45 PM PST
Astronomical Twilight 4:58 AM PST 6:17 PM PST
Moon No Moon Rise 12:56 PM PST (11/7)
Length of Visible Light 11h 10m
Length of Day
10h 13m
Last Quarter, 42% of the Moon is Illuminated
Nov 7
Last Quarter
Nov 13
New
Nov 20
First Quarter
Nov 28
Full
Dec 6
Last Quarter

Hourly Weather History & Observations

Time (PST) Temp. Windchill Dew Point Humidity Pressure Visibility Wind Dir Wind Speed Gust Speed Precip Events Conditions
12:53 AM 30.0 °F - 18.0 °F 61% 30.13 in 10.0 mi Calm Calm - N/A   Clear
1:53 AM 28.9 °F 23.9 °F 19.0 °F 67% 30.12 in 10.0 mi ESE 4.6 mph - N/A   Clear
2:53 AM 28.0 °F - 17.1 °F 63% 30.11 in 10.0 mi Calm Calm - N/A   Clear
3:53 AM 32.0 °F - 25.0 °F 75% 30.09 in 10.0 mi Calm Calm - N/A   Clear
4:53 AM 30.9 °F - 23.0 °F 72% 30.12 in 10.0 mi Calm Calm - N/A   Clear
5:53 AM 27.0 °F - 19.0 °F 72% 30.14 in 10.0 mi Calm Calm - N/A   Clear
6:53 AM 25.0 °F - 15.1 °F 66% 30.17 in 10.0 mi Calm Calm - N/A   Clear
7:53 AM 37.9 °F - 25.0 °F 60% 30.15 in 10.0 mi Calm Calm - N/A   Clear
8:53 AM 46.9 °F - 28.0 °F 48% 30.13 in 10.0 mi Calm Calm - N/A   Clear
9:53 AM 55.0 °F - 28.9 °F 37% 30.09 in 10.0 mi Calm Calm - N/A   Clear
10:53 AM 63.0 °F - 28.0 °F 27% 30.05 in 10.0 mi SSW 5.8 mph - N/A   Clear
11:53 AM 66.9 °F - 27.0 °F 22% 30.00 in 10.0 mi North - - N/A   Clear
12:53 PM 71.1 °F - 25.0 °F 18% 29.96 in 10.0 mi SSW 11.5 mph - N/A   Clear
1:53 PM 72.0 °F - 25.0 °F 17% 29.92 in 10.0 mi SSE 8.1 mph - N/A   Clear
2:53 PM 73.0 °F - 24.1 °F 16% 29.89 in 10.0 mi South 4.6 mph - N/A   Clear
3:53 PM 72.0 °F - 21.9 °F 15% 29.87 in 10.0 mi West 11.5 mph - N/A   Clear
4:53 PM 61.0 °F - 21.0 °F 21% 29.89 in 10.0 mi WNW 10.4 mph - N/A   Clear
5:53 PM 55.9 °F - 19.0 °F 24% 29.91 in 10.0 mi NW 8.1 mph - N/A   Clear
6:53 PM 48.9 °F - 19.0 °F 31% 29.92 in 10.0 mi WSW 10.4 mph - N/A   Clear
7:53 PM 54.0 °F - 21.9 °F 29% 29.88 in 10.0 mi ESE 4.6 mph - N/A   Clear
8:53 PM 50.0 °F - 23.0 °F 35% 29.87 in 10.0 mi South 9.2 mph - N/A   Clear
9:53 PM 46.9 °F - 21.0 °F 36% 29.85 in 10.0 mi SW 9.2 mph - N/A   Clear
10:53 PM 46.9 °F - 21.0 °F 36% 29.81 in 10.0 mi South 4.6 mph - N/A   Clear
11:53 PM 44.1 °F 40.8 °F 21.9 °F 42% 29.78 in 10.0 mi SSW 5.8 mph - N/A   Clear